sat.trackr.live / text

‹ back to catalog

STARLINK-5093

NORAD 56332 · 2023-058R

PAYLOAD ACTIVE UNKNOWN

§ Identity

Operator
Country
US
Launch date
2023-04-27
Launch site
AFWTR
Launch vehicle
Mass (kg)
RCS (m²)

Purposes: comms

External: N2YO · Heavens-Above · Gunter

§ Orbital elements

Epoch: 2026-09-20T22:00:03.000096Z

Period
94.56 min
Inclination
97.2849°
Eccentricity
0.0001341
Mean motion
15.22881092 rev/d
Perigee alt
496.2 km
Apogee alt
498.1 km
Semi-major
6,875.3 km
B*
3.4350e-3
RAAN
257.8091°
Arg perigee
61.4613°
Mean anomaly
127.7010°
Rev number
553

§ Raw data

STARLINK-50931 56332U 23058R   26263.91670139  .00081237  00000+0  34350-2 0  99992 56332  97.2849 257.8091 0001341  61.4613 127.7010 15.22881092  5531

JSON: /api/v1/satellites/56332 · /tle

For live sub-satellite position, see the globe view (requires WebGL).

§ Visibility from observer

Set your observer location to see the next 7 days of passes ≥ 10°. The values pass through the URL so the page stays shareable.

No JS? Fill the form by hand. The geolocation button needs JavaScript.